Weather History for Rickenbacker, OH

Change the Weather History Date:

Tuesday, March 25, 2014

  Actual Average Record
Temperature  
Mean Temperature 34 °F -  
Max Temperature 40 °F 54 °F 80 °F (2007)
Min Temperature 27 °F 35 °F 21 °F (2001)
Degree Days  
Heating Degree Days 32    
Moisture  
Dew Point 14 °F    
Average Humidity 50    
Maximum Humidity 78    
Minimum Humidity 30    
Precipitation  
Precipitation 0.00 in - - ()
Sea Level Pressure  
Sea Level Pressure 30.02 in    
Wind  
Wind Speed 5 mph (NW)    
Max Wind Speed 23 mph    
Max Gust Speed 30 mph    
Visibility 10 miles    
Events Snow    
Averages and records for this station are not official NWS values.
T = Trace of Precipitation, MM = Missing Value Source: NWS Daily Summary

Daily Weather History Graph

Daily Weather History Graph

Search for Another Location

Airport:

Trip Planner

Search our weather history database for the weather conditions in past years. The results will help you decide how hot, cold, wet, or windy it might be!

Date:

Astronomy

Mar. 25, 2014 Rise Set
Actual Time 7:27 AM EDT 7:48 PM EDT
Civil Twilight 7:00 AM EDT 8:15 PM EDT
Nautical Twilight 6:28 AM EDT 8:47 PM EDT
Astronomical Twilight 5:55 AM EDT 9:20 PM EDT
Moon 3:47 AM EDT (3/25) 2:18 PM EDT (3/25)
Length of Visible Light 13h 15m
Length of Day
12h 21m
Waning Crescent, 32% of the Moon is Illuminated
Mar 25
Waning Crescent
Mar 30
New
Apr 7
First Quarter
Apr 15
Full
Apr 22
Last Quarter

Hourly Weather History & Observations

Time (EDT) Temp. Windchill Dew Point Humidity Pressure Visibility Wind Dir Wind Speed Gust Speed Precip Events Conditions
12:15 AM 29.7 °F - 10.8 °F 45% 30.10 in 10.0 mi Calm Calm - N/A   Clear
12:35 AM 30.2 °F 25.4 °F 12.2 °F 47% 30.09 in 10.0 mi North 4.6 mph - N/A   Clear
12:55 AM 30.9 °F 24.3 °F 11.3 °F 44% 30.08 in 10.0 mi NNE 6.9 mph - N/A   Clear
1:15 AM 30.4 °F 25.6 °F 12.0 °F 47% 30.08 in 10.0 mi NNE 4.6 mph - N/A   Clear
1:35 AM 28.9 °F 23.9 °F 14.2 °F 54% 30.07 in 10.0 mi NE 4.6 mph - N/A   Clear
1:55 AM 29.7 °F 24.7 °F 13.1 °F 50% 30.06 in 10.0 mi NE 4.6 mph - N/A   Clear
2:15 AM 30.2 °F - 11.5 °F 46% 30.07 in 10.0 mi Calm Calm - N/A   Clear
2:35 AM 30.6 °F - 10.2 °F 43% 30.06 in 10.0 mi Calm Calm - N/A   Scattered Clouds
2:55 AM 30.2 °F - 11.7 °F 46% 30.06 in 10.0 mi Calm Calm - N/A   Scattered Clouds
3:15 AM 30.0 °F - 12.4 °F 48% 30.05 in 10.0 mi Calm Calm - N/A   Scattered Clouds
3:35 AM 29.7 °F - 13.1 °F 50% 30.05 in 10.0 mi Calm Calm - N/A   Clear
3:55 AM 29.8 °F - 12.7 °F 49% 30.04 in 10.0 mi Calm Calm - N/A   Scattered Clouds
4:15 AM 29.5 °F - 14.2 °F 53% 30.03 in 10.0 mi Calm Calm - N/A   Scattered Clouds
4:35 AM 29.1 °F - 14.0 °F 53% 30.03 in 10.0 mi Calm Calm - N/A   Clear
4:55 AM 28.2 °F 24.4 °F 16.0 °F 60% 30.01 in 10.0 mi South 3.5 mph - N/A   Scattered Clouds
5:15 AM 27.1 °F - 18.0 °F 68% 30.01 in 10.0 mi Calm Calm - N/A   Scattered Clouds
5:35 AM 27.7 °F - 17.8 °F 66% 30.01 in 10.0 mi Calm Calm - N/A   Overcast
5:55 AM 28.2 °F - 16.3 °F 61% 30.00 in 10.0 mi Calm Calm - N/A   Overcast
6:15 AM 28.9 °F - 15.1 °F 56% 30.00 in 10.0 mi Calm Calm - N/A   Overcast
6:35 AM 28.9 °F - 14.9 °F 56% 29.99 in 10.0 mi Calm Calm - N/A   Overcast
6:55 AM 28.9 °F - 13.8 °F 53% 29.99 in 10.0 mi Calm Calm - N/A   Overcast
7:15 AM 28.9 °F - 13.5 °F 52% 29.99 in 10.0 mi Calm Calm - N/A   Overcast
7:35 AM 28.6 °F - 14.7 °F 56% 29.98 in 10.0 mi Calm Calm - N/A   Overcast
7:55 AM 27.5 °F 23.6 °F 16.5 °F 63% 29.99 in 10.0 mi NNE 3.5 mph - N/A   Mostly Cloudy
8:15 AM 27.5 °F - 17.1 °F 65% 29.99 in 10.0 mi Calm Calm - N/A   Mostly Cloudy
8:35 AM 28.2 °F 24.4 °F 18.7 °F 67% 29.99 in 10.0 mi NNE 3.5 mph - N/A   Mostly Cloudy
8:55 AM 29.7 °F - 18.7 °F 64% 29.99 in 10.0 mi Calm Calm - N/A   Overcast
9:15 AM 30.2 °F - 17.6 °F 60% 29.98 in 10.0 mi Calm Calm - N/A   Overcast
9:35 AM 31.1 °F - 16.0 °F 54% 29.98 in 10.0 mi Calm Calm - N/A   Overcast
9:55 AM 32.4 °F 29.1 °F 13.6 °F 46% 29.98 in 10.0 mi ESE 3.5 mph - N/A   Scattered Clouds
10:15 AM 33.6 °F 30.6 °F 11.3 °F 40% 29.98 in 10.0 mi SE 3.5 mph - N/A   Scattered Clouds
10:35 AM 34.5 °F - 10.0 °F 36% 29.98 in 10.0 mi Calm Calm - N/A   Scattered Clouds
10:55 AM 35.2 °F 31.2 °F 9.5 °F 34% 29.98 in 10.0 mi SSE 4.6 mph - N/A   Clear
11:15 AM 35.4 °F - 9.7 °F 34% 29.98 in 10.0 mi Calm Calm - N/A   Scattered Clouds
11:35 AM 36.1 °F 29.9 °F 10.2 °F 34% 29.98 in 10.0 mi WSW 8.1 mph - N/A   Mostly Cloudy
11:55 AM 36.9 °F 30.1 °F 9.7 °F 33% 29.97 in 10.0 mi West 9.2 mph - N/A   Mostly Cloudy
12:15 PM 36.9 °F 31.4 °F 9.7 °F 33% 29.97 in 10.0 mi WSW 6.9 mph - N/A   Mostly Cloudy
12:35 PM 36.7 °F 31.2 °F 10.0 °F 33% 29.96 in 10.0 mi NW 6.9 mph - N/A   Mostly Cloudy
12:55 PM 37.4 °F 30.8 °F 10.2 °F 33% 29.96 in 10.0 mi West 9.2 mph - N/A   Mostly Cloudy
1:15 PM 37.9 °F 34.4 °F 10.6 °F 32% 29.95 in 10.0 mi WSW 4.6 mph - N/A   Mostly Cloudy
1:35 PM 38.5 °F 35.0 °F 10.0 °F 31% 29.95 in 10.0 mi SW 4.6 mph - N/A   Overcast
2:15 PM 38.5 °F 31.1 °F 9.3 °F 30% 29.94 in 10.0 mi WNW 11.5 mph - N/A   Mostly Cloudy
2:35 PM 39.0 °F 34.0 °F 10.2 °F 31% 29.93 in 10.0 mi WNW 6.9 mph 20.7 mph N/A   Mostly Cloudy
2:55 PM 38.8 °F 32.1 °F 10.8 °F 32% 29.93 in 10.0 mi West 10.4 mph 19.6 mph N/A   Mostly Cloudy
3:15 PM 39.0 °F 30.3 °F 12.7 °F 34% 29.93 in 10.0 mi West 16.1 mph 20.7 mph N/A   Mostly Cloudy
3:35 PM 40.3 °F 30.2 °F 13.5 °F 34% 29.93 in 10.0 mi West 23.0 mph 29.9 mph N/A   Mostly Cloudy
3:55 PM 38.3 °F 29.3 °F 19.2 °F 46% 29.93 in 10.0 mi WNW 16.1 mph 26.5 mph N/A   Mostly Cloudy
4:15 PM 33.8 °F 22.5 °F 24.4 °F 69% 29.96 in 0.2 mi NW 19.6 mph 29.9 mph N/A Snow Light Snow
4:35 PM 31.8 °F 21.8 °F 25.7 °F 78% 29.97 in 2.0 mi NW 13.8 mph 23.0 mph N/A Snow Light Snow
4:55 PM 32.5 °F 20.5 °F 24.6 °F 73% 29.98 in 10.0 mi NW 20.7 mph 24.2 mph N/A   Overcast
5:15 PM 32.7 °F 22.1 °F 22.6 °F 66% 29.97 in 10.0 mi NNW 16.1 mph 21.9 mph N/A   Mostly Cloudy
5:35 PM 32.9 °F 22.8 °F 22.1 °F 65% 29.98 in 10.0 mi NNW 15.0 mph - N/A   Mostly Cloudy
5:55 PM 32.9 °F 20.7 °F 21.4 °F 63% 29.99 in 4.0 mi NNW 21.9 mph - N/A Snow Light Snow
6:15 PM 32.5 °F 23.7 °F 22.5 °F 66% 30.00 in 10.0 mi NW 11.5 mph - N/A   Mostly Cloudy
6:35 PM 32.7 °F 23.9 °F 19.6 °F 58% 30.01 in 10.0 mi WNW 11.5 mph 28.8 mph N/A   Mostly Cloudy
6:55 PM 32.5 °F 21.9 °F 15.3 °F 49% 30.01 in 10.0 mi WNW 16.1 mph 27.6 mph N/A   Scattered Clouds
7:15 PM 32.5 °F 20.2 °F 14.4 °F 47% 30.02 in 10.0 mi NW 21.9 mph 29.9 mph N/A   Mostly Cloudy
7:35 PM 32.2 °F 20.0 °F 12.6 °F 44% 30.03 in 10.0 mi NW 20.7 mph 26.5 mph N/A   Overcast
7:55 PM 31.5 °F 20.9 °F 14.4 °F 49% 30.05 in 10.0 mi NW 15.0 mph 23.0 mph N/A   Scattered Clouds
8:15 PM 30.9 °F 21.7 °F 14.4 °F 50% 30.05 in 10.0 mi WNW 11.5 mph 20.7 mph N/A   Mostly Cloudy
8:35 PM 30.7 °F 20.9 °F 13.5 °F 49% 30.06 in 10.0 mi WNW 12.7 mph 19.6 mph N/A   Scattered Clouds
8:55 PM 30.2 °F 19.8 °F 12.9 °F 49% 30.06 in 10.0 mi WNW 13.8 mph - N/A   Scattered Clouds
9:15 PM 30.2 °F 21.9 °F 12.4 °F 48% 30.08 in 10.0 mi WNW 9.2 mph - N/A   Mostly Cloudy
9:35 PM 30.2 °F 19.3 °F 13.1 °F 49% 30.09 in 10.0 mi WNW 15.0 mph - N/A   Overcast
9:55 PM 30.0 °F 19.5 °F 14.4 °F 52% 30.09 in 10.0 mi WNW 13.8 mph - N/A   Overcast
10:15 PM 29.8 °F 20.9 °F 14.9 °F 54% 30.10 in 10.0 mi NW 10.4 mph 16.1 mph N/A   Overcast
10:35 PM 29.3 °F 18.6 °F 13.6 °F 52% 30.11 in 10.0 mi NW 13.8 mph 21.9 mph N/A   Overcast
10:55 PM 29.3 °F 18.2 °F 12.0 °F 49% 30.12 in 10.0 mi NNW 15.0 mph 20.7 mph N/A   Overcast
11:15 PM 28.8 °F 17.5 °F 9.3 °F 44% 30.13 in 10.0 mi NW 15.0 mph - N/A   Overcast
11:35 PM 27.9 °F 15.9 °F 9.1 °F 45% 30.14 in 10.0 mi NW 16.1 mph 21.9 mph N/A   Mostly Cloudy
11:55 PM 27.0 °F 17.3 °F 9.0 °F 47% 30.15 in 10.0 mi NNW 10.4 mph - N/A   Mostly Cloudy